�N����,����,�~����,�C��,���x,�C��,����,���ϕ���,�ő�u�ԕ���,�ő厞����,���˗�,�I�_���x,�n�����x,�ő啗���N��,DTYPE
"17/04/04","00:10",0.0,8.3,64.4,1015.9,332.2,1.6,2.5,334.1,0.00,2.0,10.7,"00:00:08",1
"17/04/04","00:20",0.0,7.6,66.9,1015.9,315.6,1.8,2.7,311.7,0.00,1.9,10.5,"00:14:48",1
"17/04/04","00:30",0.0,7.2,68.7,1015.6,313.6,1.8,3.4,325.8,0.00,1.9,10.3,"00:29:20",1
"17/04/04","00:40",0.0,6.9,71.0,1016.1,321.9,2.2,3.6,327.2,0.00,2.1,10.4,"00:34:00",1
"17/04/04","00:50",0.0,6.3,73.0,1015.9,288.0,1.3,2.1,278.1,0.00,1.9,10.1,"00:43:44",1
"17/04/04","01:00",0.0,6.0,75.1,1016.1,295.7,1.3,2.9,312.3,0.00,2.0,10.1,"00:59:44",1
"17/04/04","01:10",0.0,5.8,77.0,1015.9,314.7,2.0,2.6,322.5,0.00,2.1,10.1,"01:05:12",1
"17/04/04","01:20",0.0,5.6,78.3,1015.9,307.3,2.0,2.6,316.5,0.00,2.2,9.9,"01:11:44",1
"17/04/04","01:30",0.0,5.3,80.1,1015.6,291.9,1.6,2.0,298.0,0.00,2.2,9.8,"01:24:08",1
"17/04/04","01:40",0.0,5.4,81.6,1015.9,314.1,2.2,3.1,313.4,0.00,2.5,9.7,"01:35:04",1
"17/04/04","01:50",0.0,5.5,81.5,1016.1,298.3,1.7,2.5,320.2,0.00,2.6,9.8,"01:41:36",1
"17/04/04","02:00",0.0,5.5,82.5,1016.1,315.1,2.2,2.8,317.2,0.00,2.8,9.8,"01:51:04",1
"17/04/04","02:10",0.0,5.6,82.9,1016.4,311.3,2.2,2.7,314.9,0.00,3.0,9.8,"02:02:16",1
"17/04/04","02:20",0.0,5.6,82.8,1016.4,306.0,2.2,3.3,323.9,0.00,3.0,9.7,"02:19:20",1
"17/04/04","02:30",0.0,5.5,83.3,1016.1,310.5,2.1,3.4,323.6,0.00,2.9,9.6,"02:28:24",1
"17/04/04","02:40",0.0,5.4,83.8,1016.6,301.5,2.0,2.4,312.8,0.00,2.9,9.4,"02:31:28",1
"17/04/04","02:50",0.0,5.5,84.6,1016.6,281.6,1.6,1.8,309.3,0.00,3.2,9.6,"02:40:08",1
"17/04/04","03:00",0.0,6.1,84.1,1017.1,310.2,2.0,2.9,317.9,0.00,3.7,9.4,"02:51:04",1
"17/04/04","03:10",0.0,6.9,82.0,1016.6,328.5,1.8,3.3,316.2,0.00,4.1,9.5,"03:01:28",1
"17/04/04","03:20",0.0,7.3,80.3,1017.1,323.1,2.8,3.9,316.5,0.00,4.2,9.6,"03:14:16",1
"17/04/04","03:30",0.0,7.7,77.7,1017.1,330.2,2.7,3.7,336.0,0.00,4.1,9.5,"03:24:40",1
"17/04/04","03:40",0.0,7.7,76.4,1017.3,328.6,2.8,3.9,328.9,0.00,3.9,9.5,"03:34:40",1
"17/04/04","03:50",0.0,7.5,76.5,1017.3,327.6,2.8,3.7,326.3,0.00,3.7,9.4,"03:48:32",1
"17/04/04","04:00",0.0,7.4,76.6,1017.5,326.1,2.7,4.3,339.8,0.00,3.6,9.3,"03:51:28",1
"17/04/04","04:10",0.0,7.3,77.4,1017.5,321.9,3.1,3.9,330.9,0.00,3.7,9.5,"04:02:24",1
"17/04/04","04:20",0.0,7.1,77.6,1017.5,322.3,2.7,4.2,327.8,0.00,3.5,9.2,"04:11:28",1
"17/04/04","04:30",0.0,6.6,79.0,1017.3,318.7,2.5,3.9,327.7,0.00,3.3,9.2,"04:21:20",1
"17/04/04","04:40",0.0,6.5,79.9,1017.5,322.1,1.8,2.6,314.3,0.00,3.3,9.2,"04:38:48",1
"17/04/04","04:50",0.0,6.3,81.2,1017.5,315.9,2.7,4.7,321.6,0.00,3.4,9.2,"04:49:20",1
"17/04/04","05:00",0.0,6.9,80.7,1018.2,326.6,3.9,5.1,342.7,0.00,3.9,9.2,"04:58:24",1
"17/04/04","05:10",0.0,7.4,78.4,1017.8,327.9,4.1,5.5,317.9,0.00,3.9,9.0,"05:05:12",1
"17/04/04","05:20",0.0,7.4,78.2,1018.2,329.1,4.2,5.8,327.0,0.00,3.9,9.1,"05:15:12",1
"17/04/04","05:30",0.0,7.4,78.2,1018.7,327.4,4.2,5.5,336.1,0.00,3.9,9.1,"05:28:32",1
"17/04/04","05:40",0.0,7.3,78.4,1019.0,326.7,3.4,5.1,340.1,0.00,3.8,9.2,"05:31:44",1
"17/04/04","05:50",0.0,7.0,79.5,1018.7,333.2,3.1,4.4,335.1,0.00,3.7,9.2,"05:42:56",1
"17/04/04","06:00",0.0,7.0,80.1,1019.2,328.7,3.1,3.9,329.8,0.00,3.8,9.1,"05:56:40",1
"17/04/04","06:10",0.0,7.3,80.3,1019.0,326.2,3.7,5.1,331.8,0.00,4.2,9.1,"06:04:48",1
"17/04/04","06:20",0.0,7.3,79.9,1019.7,327.5,3.2,4.7,316.2,0.00,4.1,9.3,"06:10:24",1
"17/04/04","06:30",0.0,7.2,80.5,1019.9,331.2,2.7,4.0,343.9,0.00,4.1,9.0,"06:20:08",1
"17/04/04","06:40",0.0,7.6,80.7,1019.7,337.4,2.6,3.7,336.0,0.01,4.5,9.0,"06:30:56",1
"17/04/04","06:50",0.0,8.0,79.9,1019.9,332.5,3.0,4.4,341.8,0.02,4.8,9.0,"06:46:48",1
"17/04/04","07:00",0.0,8.6,77.9,1019.9,333.2,2.3,4.4,328.7,0.03,5.0,9.1,"06:50:32",1
"17/04/04","07:10",0.0,9.1,76.1,1020.4,331.7,2.3,4.2,335.4,0.04,5.2,9.0,"07:05:04",1
"17/04/04","07:20",0.0,9.6,75.1,1020.6,336.6,1.8,3.3,337.7,0.06,5.5,9.1,"07:10:24",1
"17/04/04","07:30",0.0,10.5,70.2,1020.8,324.0,1.8,3.5,337.2,0.09,5.3,9.2,"07:29:28",1
"17/04/04","07:40",0.0,11.2,69.2,1020.8,312.5,1.7,3.6,318.6,0.11,5.8,9.3,"07:31:04",1
"17/04/04","07:50",0.0,10.4,70.8,1021.3,203.1,1.3,3.6,214.1,0.14,5.4,9.3,"07:43:44",1
"17/04/04","08:00",0.0,10.7,71.1,1021.3,154.2,1.2,2.5,126.8,0.16,5.7,9.2,"07:52:16",1
"17/04/04","08:10",0.0,11.1,69.6,1021.3,164.5,1.1,2.1,142.9,0.19,5.8,9.6,"08:00:08",1
"17/04/04","08:20",0.0,11.2,66.2,1021.1,136.2,1.0,1.9,117.0,0.22,5.2,9.6,"08:12:56",1
"17/04/04","08:30",0.0,11.7,66.0,1021.1,137.4,0.8,1.9,120.6,0.24,5.6,9.7,"08:22:00",1
"17/04/04","08:40",0.0,12.3,65.1,1021.1,190.1,1.1,2.2,159.4,0.28,6.0,9.9,"08:38:24",1
"17/04/04","08:50",0.0,12.6,62.5,1021.1,219.8,1.1,2.6,159.1,0.30,5.7,9.9,"08:40:32",1
"17/04/04","09:00",0.0,12.9,64.0,1020.8,217.7,1.8,3.3,235.5,0.33,6.3,10.0,"08:56:40",1
"17/04/04","09:10",0.0,13.6,62.0,1021.1,180.6,1.3,2.5,125.3,0.36,6.5,10.2,"09:06:00",1
"17/04/04","09:20",0.0,13.8,58.8,1021.3,204.8,1.1,2.4,199.8,0.38,5.9,10.5,"09:17:44",1
"17/04/04","09:30",0.0,13.7,58.5,1021.3,127.3,1.8,3.5,121.0,0.41,5.8,10.6,"09:23:20",1
"17/04/04","09:40",0.0,14.1,56.1,1021.3,145.9,1.8,4.7,134.8,0.43,5.5,10.7,"09:34:56",1
"17/04/04","09:50",0.0,14.6,56.8,1021.1,175.9,2.0,3.5,161.7,0.45,6.2,11.0,"09:44:00",1
"17/04/04","10:00",0.0,14.8,54.6,1020.8,170.1,2.3,4.0,197.3,0.47,5.8,11.2,"09:58:24",1
"17/04/04","10:10",0.0,15.2,54.6,1020.8,177.6,2.2,4.1,160.3,0.49,6.2,11.3,"10:02:56",1
"17/04/04","10:20",0.0,15.4,54.2,1020.8,174.6,2.3,4.4,171.9,0.51,6.2,11.7,"10:11:52",1
"17/04/04","10:30",0.0,15.3,52.4,1020.6,178.0,2.2,4.4,155.9,0.52,5.7,11.7,"10:25:52",1
"17/04/04","10:40",0.0,16.0,53.5,1020.6,176.0,1.5,3.9,154.8,0.53,6.6,12.2,"10:39:04",1
"17/04/04","10:50",0.0,16.0,51.5,1020.8,151.3,1.2,3.2,149.6,0.55,6.1,12.1,"10:46:08",1
"17/04/04","11:00",0.0,16.5,48.5,1020.1,169.9,1.5,3.7,126.7,0.57,5.7,12.6,"10:55:36",1
"17/04/04","11:10",0.0,16.9,50.6,1019.9,181.6,1.7,3.9,203.6,0.57,6.6,12.7,"11:08:48",1
"17/04/04","11:20",0.0,17.4,49.7,1019.4,202.4,2.2,5.0,216.6,0.58,6.8,13.0,"11:12:00",1
"17/04/04","11:30",0.0,17.1,46.2,1020.1,195.1,2.2,4.5,149.4,0.59,5.5,13.2,"11:28:32",1
"17/04/04","11:40",0.0,17.3,46.0,1019.7,192.2,2.0,4.4,193.1,0.60,5.6,13.6,"11:37:28",1
"17/04/04","11:50",0.0,17.8,47.2,1019.9,161.6,2.0,4.7,194.5,0.60,6.4,13.7,"11:43:12",1
"17/04/04","12:00",0.0,17.7,46.8,1019.4,153.0,2.7,4.8,151.9,0.60,6.2,14.0,"11:50:16",1
"17/04/04","12:10",0.0,17.9,43.8,1019.9,162.2,3.0,7.8,199.7,0.60,5.5,14.2,"12:07:52",1
"17/04/04","12:20",0.0,18.0,43.9,1019.7,154.7,3.1,5.2,118.3,0.60,5.6,14.6,"12:17:28",1
"17/04/04","12:30",0.0,17.9,44.0,1019.4,167.2,2.7,5.0,159.4,0.60,5.5,14.5,"12:24:56",1
"17/04/04","12:40",0.0,18.3,44.2,1019.2,167.2,2.7,5.5,124.9,0.60,6.0,14.7,"12:31:44",1
"17/04/04","12:50",0.0,18.4,41.6,1019.2,221.1,1.6,4.2,90.1,0.59,5.2,15.0,"12:44:24",1
"17/04/04","13:00",0.0,18.9,41.8,1018.7,167.7,1.5,4.1,115.9,0.58,5.7,15.1,"12:54:24",1
"17/04/04","13:10",0.0,18.8,40.9,1018.5,159.5,2.5,4.7,136.4,0.58,5.3,15.1,"13:05:16",1
"17/04/04","13:20",0.0,19.4,42.5,1018.2,268.2,1.3,3.5,216.8,0.58,6.4,15.7,"13:13:12",1
"17/04/04","13:30",0.0,19.5,41.3,1018.0,142.1,2.5,5.1,135.8,0.58,6.1,15.8,"13:23:52",1
"17/04/04","13:40",0.0,19.3,36.5,1018.0,173.7,2.1,4.9,140.7,0.57,4.1,15.7,"13:30:24",1
"17/04/04","13:50",0.0,19.6,34.8,1017.8,100.9,1.3,3.5,56.0,0.56,3.7,16.0,"13:48:08",1
"17/04/04","14:00",0.0,19.8,35.2,1017.8,180.7,2.1,4.8,220.5,0.55,4.0,16.1,"13:54:00",1
"17/04/04","14:10",0.0,20.0,36.1,1017.5,158.9,2.0,4.7,110.0,0.54,4.6,16.1,"14:03:44",1
"17/04/04","14:20",0.0,20.3,35.9,1017.8,177.5,2.2,4.2,218.5,0.52,4.8,16.4,"14:17:12",1
"17/04/04","14:30",0.0,20.5,32.7,1017.5,169.2,2.0,4.0,160.3,0.50,3.6,16.3,"14:25:04",1
"17/04/04","14:40",0.0,20.6,34.0,1017.5,194.5,2.6,4.7,182.7,0.47,4.2,16.4,"14:36:24",1
"17/04/04","14:50",0.0,20.3,34.9,1017.3,204.5,2.8,5.4,227.5,0.45,4.4,16.5,"14:45:44",1
"17/04/04","15:00",0.0,20.9,32.7,1017.1,193.8,2.6,5.9,218.5,0.45,4.0,16.6,"14:51:28",1
"17/04/04","15:10",0.0,20.6,34.4,1017.1,188.2,3.2,5.5,182.1,0.40,4.4,16.3,"15:01:28",1
"17/04/04","15:20",0.0,20.4,35.0,1016.8,167.3,3.5,5.8,148.7,0.40,4.5,16.3,"15:16:40",1
"17/04/04","15:30",0.0,20.7,33.9,1017.1,183.1,3.4,6.3,151.0,0.37,4.3,16.3,"15:21:12",1
"17/04/04","15:40",0.0,20.4,35.3,1017.1,196.5,3.6,5.9,200.3,0.35,4.6,16.2,"15:36:16",1
"17/04/04","15:50",0.0,20.4,33.0,1017.1,202.8,3.7,7.7,223.9,0.32,3.6,16.3,"15:42:48",1
"17/04/04","16:00",0.0,20.6,34.3,1017.3,190.9,3.2,5.6,234.2,0.30,4.4,16.4,"15:53:44",1
"17/04/04","16:10",0.0,20.6,32.6,1017.1,185.0,3.1,6.0,215.3,0.28,3.6,16.3,"16:09:44",1
"17/04/04","16:20",0.0,20.3,33.9,1017.1,165.6,3.0,5.7,130.2,0.22,3.9,16.0,"16:16:08",1
"17/04/04","16:30",0.0,20.2,32.5,1017.3,174.2,2.6,5.1,151.3,0.20,3.3,16.1,"16:28:08",1
"17/04/04","16:40",0.0,20.0,34.3,1017.3,179.8,2.6,5.9,167.9,0.16,3.8,15.9,"16:32:00",1
"17/04/04","16:50",0.0,20.1,33.4,1017.3,208.8,2.1,4.2,211.4,0.14,3.6,15.8,"16:48:56",1
"17/04/04","17:00",0.0,20.1,33.9,1017.3,201.5,2.2,3.7,225.6,0.13,3.8,15.7,"16:50:16",1
"17/04/04","17:10",0.0,20.0,32.9,1017.1,179.8,2.0,3.7,187.3,0.11,3.3,15.7,"17:06:48",1
"17/04/04","17:20",0.0,19.7,33.2,1017.1,173.2,1.7,3.5,162.7,0.08,3.1,15.5,"17:10:08",1
"17/04/04","17:30",0.0,19.5,34.3,1017.8,179.3,1.7,3.2,207.8,0.05,3.4,15.6,"17:25:04",1
"17/04/04","17:40",0.0,19.0,36.1,1017.8,180.8,1.6,3.4,208.8,0.03,3.7,15.3,"17:30:48",1
"17/04/04","17:50",0.0,18.7,36.5,1017.5,171.2,1.3,2.6,130.6,0.02,3.6,15.3,"17:47:36",1
"17/04/04","18:00",0.0,18.2,37.6,1018.0,179.5,1.3,2.7,149.9,0.01,3.6,15.2,"17:51:04",1
"17/04/04","18:10",0.0,17.8,38.3,1018.0,187.8,1.2,2.8,193.4,0.00,3.5,15.3,"18:03:12",1
"17/04/04","18:20",0.0,17.4,39.8,1018.2,208.2,1.1,2.1,222.2,0.00,3.6,15.1,"18:12:48",1
"17/04/04","18:30",0.0,16.8,46.1,1018.2,297.1,1.6,2.4,307.5,0.00,5.2,14.8,"18:25:12",1
"17/04/04","18:40",0.0,15.6,50.0,1018.5,316.8,1.6,2.8,332.0,0.00,5.3,14.5,"18:33:52",1
"17/04/04","18:50",0.0,14.7,52.0,1018.5,263.3,1.1,2.2,262.6,0.00,5.0,14.5,"18:48:40",1
"17/04/04","19:00",0.0,14.5,53.3,1018.7,309.8,1.6,2.8,343.5,0.00,5.2,14.4,"18:56:56",1
"17/04/04","19:10",0.0,13.9,56.6,1018.7,332.8,1.6,2.4,320.6,0.00,5.5,14.3,"19:00:40",1
"17/04/04","19:20",0.0,13.4,58.1,1019.0,305.5,2.0,2.9,325.5,0.00,5.4,14.2,"19:16:08",1
"17/04/04","19:30",0.0,13.3,59.5,1018.7,323.5,1.7,2.5,322.7,0.00,5.6,14.0,"19:28:54",1
"17/04/04","19:40",0.0,12.9,60.0,1019.4,293.0,1.5,2.6,304.5,0.00,5.4,13.8,"19:32:18",1
"17/04/04","19:50",0.0,12.6,61.4,1019.4,292.1,1.5,2.2,328.8,0.00,5.4,13.8,"19:47:12",1
"17/04/04","20:00",0.0,12.2,62.2,1019.4,290.6,1.3,1.8,309.9,0.00,5.2,13.4,"19:51:20",1
"17/04/04","20:10",0.0,12.1,63.8,1019.4,302.9,1.8,2.7,313.9,0.00,5.5,13.4,"20:04:24",1
"17/04/04","20:20",0.0,11.8,65.4,1019.7,317.1,1.2,1.9,332.0,0.00,5.6,13.5,"20:14:24",1
"17/04/04","20:30",0.0,11.4,66.2,1019.7,290.5,1.5,2.0,306.6,0.00,5.4,13.3,"20:27:46",1
"17/04/04","20:40",0.0,11.3,66.9,1019.4,308.1,1.5,1.9,337.9,0.00,5.4,13.1,"20:32:34",1
"17/04/04","20:50",0.0,11.0,67.9,1019.7,316.4,1.7,2.1,322.7,0.00,5.3,13.0,"20:43:04",1
"17/04/04","21:00",0.0,10.8,68.5,1019.7,292.3,1.6,1.9,319.9,0.00,5.3,13.0,"20:52:06",1
"17/04/04","21:10",0.0,10.8,68.6,1019.9,292.7,1.6,2.4,323.3,0.00,5.3,12.9,"21:04:56",1
"17/04/04","21:20",0.0,10.4,69.8,1019.9,309.4,1.7,2.4,326.0,0.00,5.2,12.6,"21:12:18",1
"17/04/04","21:30",0.0,10.5,70.6,1020.1,308.4,2.2,3.2,321.1,0.00,5.4,12.7,"21:25:46",1
"17/04/04","21:40",0.0,10.3,70.8,1020.1,308.2,2.2,3.1,317.4,0.00,5.3,12.6,"21:39:04",1
"17/04/04","21:50",0.0,10.2,70.6,1020.4,295.9,2.0,3.2,308.5,0.00,5.1,12.5,"21:40:32",1
"17/04/04","22:00",0.0,10.1,71.1,1020.4,292.5,2.0,2.7,302.9,0.00,5.1,12.3,"21:51:46",1
"17/04/04","22:10",0.0,10.2,70.5,1020.1,304.1,2.2,3.3,323.0,0.00,5.1,12.1,"22:04:12",1
"17/04/04","22:20",0.0,9.9,71.1,1020.4,317.0,1.8,2.5,328.8,0.00,5.0,12.1,"22:14:50",1
"17/04/04","22:30",0.0,9.4,72.3,1020.6,316.7,1.6,2.1,315.5,0.00,4.7,11.9,"22:24:06",1
"17/04/04","22:40",0.0,9.0,74.0,1020.4,313.5,1.6,2.0,318.2,0.00,4.7,12.0,"22:39:00",1
"17/04/04","22:50",0.0,8.9,74.8,1020.1,301.0,2.1,3.5,319.3,0.00,4.7,11.8,"22:49:36",1
"17/04/04","23:00",0.0,8.8,74.6,1019.9,321.2,1.7,2.4,320.7,0.00,4.6,11.7,"22:50:02",1
"17/04/04","23:10",0.0,8.6,75.6,1020.4,320.8,2.1,3.4,327.5,0.00,4.6,11.7,"23:09:52",1
"17/04/04","23:20",0.0,8.1,77.6,1020.4,321.5,2.0,3.4,333.1,0.00,4.5,11.7,"23:10:08",1
"17/04/04","23:30",0.0,7.9,80.2,1020.6,328.2,2.1,2.6,318.4,0.00,4.7,11.4,"23:21:20",1
"17/04/04","23:40",0.0,7.7,80.9,1020.1,321.5,1.7,2.5,320.8,0.00,4.7,11.4,"23:33:12",1
"17/04/04","23:50",0.0,7.6,81.6,1019.9,321.3,2.0,2.4,323.9,0.00,4.7,11.2,"23:41:12",1
"17/04/04","24:00",0.0,7.4,81.5,1020.1,307.1,1.7,2.4,323.4,0.00,4.5,11.2,"23:58:00",1
